Theta_e
339 337 338 340 335 333 334 338 341 342 342 340 334 335 334 333 335 334 333 335 339 341 339 339 341 343 343 344 344 344 342 339 338
337 336 337 335 333 331 333 338 339 341 340 337 333 332 333 335 336 334 332 332 334 336 341 338 338 340 342 343 343 342 341 340 339
334 334 334 333 331 329 329 332 333 334 335 333 330 332 333 333 331 331 328 327 329 331 335 341 340 338 339 341 341 343 342 339 339
332 331 330 329 328 327 326 325 325 328 330 330 329 328 328 329 328 326 326 327 327 326 328 334 339 341 338 339 342 341 342 340 338
328 328 326 324 322 317 315 314 312 313 317 321 321 316 319 321 322 322 322 326 326 323 324 326 333 337 340 338 340 340 341 341 341
327 324 323 321 315 308 306 306 307 309 308 307 309 311 312 312 315 314 314 320 323 323 321 322 324 330 334 339 338 339 338 339 340
324 322 318 307 305 305 305 307 308 308 308 308 308 308 308 309 309 313 310 317 319 322 322 321 321 322 329 333 335 337 339 338 336
319 316 312 310 309 309 309 309 309 309 309 309 309 308 308 308 309 308 315 316 316 318 319 321 319 321 322 325 327 330 332 337 337
311 311 311 310 310 310 310 310 310 309 309 309 309 308 308 308 308 310 317 320 322 323 320 317 318 319 320 321 322 324 327 330 335
311 310 310 310 310 310 310 310 310 310 309 309 309 308 308 307 308 308 304 311 316 320 323 323 318 319 320 320 320 320 322 325 331
311 310 310 310 310 310 310 310 310 310 310 310 309 308 308 308 307 308 307 304 306 315 318 321 323 323 323 323 323 322 322 321 322
310 310 310 310 310 309 310 310 310 310 310 310 310 309 308 308 307 307 307 307 306 303 305 308 314 316 317 318 319 320 321 322 322
310 310 310 310 310 310 310 310 311 311 311 310 310 310 309 308 307 307 307 306 306 306 302 302 302 304 307 315 317 316 317 318 321
310 311 311 310 310 310 310 310 310 311 311 310 309 310 309 308 306 306 306 305 306 305 305 303 302 301 300 301 305 311 312 314 316
310 311 311 310 311 310 310 310 310 310 310 310 310 311 310 308 308 307 305 306 306 305 305 305 304 302 301 300 300 305 308 310 312
310 311 311 310 310 311 311 310 310 311 311 310 311 311 311 309 307 306 306 307 306 305 304 304 303 303 303 303 303 303 303 305 308
310 311 311 310 310 311 311 311 311 311 310 309 309 312 311 310 307 306 306 306 305 304 304 304 303 302 302 302 301 300 299 303 305
310 310 310 310 311 311 311 311 311 311 310 310 308 310 310 309 308 308 307 306 305 304 303 303 302 302 301 301 301 301 302 303 304
310 310 310 310 310 311 310 310 310 309 310 309 309 307 307 308 308 306 305 305 304 303 302 302 301 301 300 300 300 300 301 302 303
310 310 310 310 310 310 309 309 309 308 308 308 308 308 307 306 306 307 305 304 303 303 302 301 301 300 300 300 300 300 301 301 302
Wind_Speed
13 13 12 14 14 14 14 13 13 12 12 12 14 15 15 15 16 20 19 20 20 21 20 20 20 21 20 20 17 13 10 10 9
12 13 14 14 14 15 15 16 14 13 12 12 13 15 16 13 18 18 18 20 20 20 20 18 19 19 19 19 19 17 12 9 8
13 13 14 14 14 15 15 16 14 13 12 11 12 12 14 13 15 16 18 20 19 19 19 19 17 17 17 18 17 17 16 14 11
13 13 13 13 14 14 15 15 14 13 13 12 12 12 14 12 13 15 15 18 17 18 17 17 17 17 16 16 16 15 15 15 13
12 13 13 13 13 11 11 12 12 13 13 13 13 14 12 11 11 12 15 17 16 16 17 17 16 16 16 14 15 14 13 13 13
10 12 12 12 11 11 12 13 14 14 14 15 16 12 11 10 11 11 14 15 15 15 15 15 15 16 15 15 14 13 11 12 12
11 11 11 12 14 15 15 17 14 11 11 12 13 11 10 10 11 13 13 13 13 13 13 13 14 14 15 14 14 13 13 10 8
7 7 7 7 8 8 10 10 12 13 12 12 12 11 11 10 10 14 14 14 13 12 11 12 13 13 13 14 14 13 12 10 8
8 7 8 7 7 8 9 10 11 12 12 12 12 12 11 10 9 13 14 14 14 14 11 9 11 12 13 13 13 13 13 11 9
8 9 8 7 7 7 8 8 8 8 10 11 10 10 10 10 8 8 13 12 13 13 14 13 10 10 12 13 13 14 13 12 10
9 9 8 7 6 6 6 5 6 6 7 8 8 8 7 8 7 6 8 11 12 12 12 13 12 11 11 11 12 13 13 13 12
9 9 8 6 6 5 4 4 3 4 4 5 6 6 6 6 5 4 4 5 9 9 8 8 9 10 10 10 10 10 11 12 12
9 8 7 6 5 3 2 1 1 3 4 5 5 5 5 5 4 2 2 2 3 7 7 7 6 6 7 8 8 8 9 10 10
9 8 7 6 4 2 1 1 3 4 5 7 7 7 6 6 4 1 1 2 3 3 7 10 11 11 10 7 7 8 8 8 9
9 7 7 6 3 2 2 3 3 4 6 8 10 8 7 6 5 5 3 3 5 6 8 9 7 13 13 12 10 9 10 10 9
9 7 7 6 5 4 4 4 5 7 6 9 11 11 11 8 6 7 7 10 7 9 10 10 10 10 11 11 10 11 12 12 12
9 8 7 8 7 6 7 7 7 8 6 7 12 6 8 4 4 8 12 12 11 11 11 12 13 14 14 13 15 18 15 12 13
10 10 9 9 9 9 9 8 8 10 10 8 6 4 5 14 16 14 11 12 13 14 14 15 15 15 16 16 15 13 11 13 14
11 11 11 10 10 10 10 10 10 10 11 12 10 12 14 8 7 15 19 20 18 16 15 16 17 16 17 17 16 19 16 15 16
11 10 10 10 10 11 11 11 11 11 12 13 13 13 14 16 13 9 14 18 18 18 17 16 17 18 18 17 18 17 16 16 17
Wind_Direction
89 83 82 82 75 70 65 66 73 83 80 71 68 66 57 57 56 56 47 41 40 41 37 40 42 41 46 48 54 63 70 81 87
93 88 85 85 79 74 69 73 73 77 78 72 73 73 63 60 62 57 47 41 39 37 38 40 41 42 40 42 44 52 61 70 90
95 90 90 87 82 77 74 72 75 79 74 77 79 74 55 58 55 56 46 41 37 36 35 38 40 39 40 39 40 45 51 58 74
95 91 88 86 84 80 77 75 76 78 79 78 76 68 61 54 49 46 37 33 33 35 35 35 37 41 37 40 42 46 50 53 58
95 92 89 86 82 82 82 78 68 62 66 69 65 56 46 47 48 42 34 30 30 29 30 33 32 36 37 40 43 43 47 49 54
96 100 96 92 88 81 78 75 69 52 46 50 55 47 43 44 42 31 27 27 27 27 29 30 34 33 34 37 41 40 43 46 50
115 110 102 94 85 78 74 67 61 66 58 47 45 44 45 46 45 24 23 27 28 29 29 30 34 33 36 35 34 36 37 39 42
122 113 102 94 89 85 76 71 70 66 60 55 51 49 49 49 49 34 35 32 32 30 26 28 34 35 34 30 28 28 26 30 27
141 134 126 111 100 90 82 74 69 63 58 54 52 52 55 55 60 47 56 50 47 41 36 35 33 32 27 29 25 23 21 19 20
141 137 130 121 109 97 87 79 72 60 52 49 49 54 55 55 53 30 43 46 47 46 49 51 51 41 35 31 27 23 21 18 17
148 144 137 129 121 108 96 85 67 55 45 42 40 48 46 43 48 55 12 32 46 53 51 49 53 53 44 35 29 29 28 18 12
157 152 149 145 133 124 109 79 62 45 30 27 21 25 24 22 26 36 53 16 17 32 46 43 35 30 27 28 27 24 20 20 17
166 160 158 157 148 144 129 77 22 5 6 353 357 353 350 353 5 26 47 48 48 354 6 12 4 359 360 11 14 6 6 9 9
173 174 172 171 174 179 192 328 343 333 337 328 326 319 316 320 302 305 136 50 7 352 334 335 336 329 322 313 315 340 342 347 354
184 184 184 187 197 218 254 279 286 312 309 315 312 300 295 283 291 280 240 304 320 314 316 317 311 318 323 316 303 305 315 319 318
187 193 199 204 221 234 243 262 273 284 293 307 302 302 289 271 276 248 245 314 303 302 300 309 307 307 307 308 307 304 300 297 303
195 202 209 217 225 237 246 253 272 278 284 300 311 291 298 259 234 237 259 294 290 293 288 291 299 296 299 295 291 303 300 293 292
204 212 219 225 231 244 249 256 262 280 288 265 281 303 299 331 306 295 277 291 282 281 289 292 290 288 290 289 291 295 290 295 294
211 219 227 237 243 250 260 260 259 264 270 281 242 264 276 290 290 291 296 291 291 293 284 283 289 288 287 287 287 289 285 287 288
219 229 238 245 252 257 262 264 260 261 267 271 282 275 279 278 282 281 278 285 283 285 291 283 284 284 285 281 279 283 281 283 284